Regional Weather Roundup
Issued by NWS Grand Forks, ND

Home | Current Version | Previous Version | Graphics & Text | Print | Product List | Glossary On
Versions: 1 2 3 4 5 6 7 8 9 10 11 12 13 14 15 16 17 18 19 20 21 22 23 24 25 26 27 28 29 30 31 32 33 34 35 36 37 38 39 40 41 42 43 44 45 46 47 48 49 50
000
ASUS43 KFGF 270531
RWRFGF
PRAIRIE TO PINES  WEATHER ROUNDUP
NATIONAL WEATHER SERVICE EASTERN NORTH DAKOTA/GRAND FORKS ND
1100 PM CST FRI DEC 26 2014

 **SATELLITE DATA USED TO AUGMENT SKY COVER AT AUTOMATED STATIONS**
 *****  WEATHER ACROSS EASTERN NORTH DAKOTA  *****

CITY           SKY/WX    TMP DP  RH WIND       PRES   REMARKS
GRAND FORKS    CLOUDY     6   3  87 N5        30.23S WCI  -3
GRAND FRKS AFB FLURRIES   0  -2  92 NW5       30.23F WCI -10
GRAND FRKS NWS   N/A      7 N/A N/A N2          N/A
DEVILS LAKE    PTCLDY    -4 -11  71 CALM      30.16S
FARGO          PTCLDY     8   3  80 N7        30.22F WCI  -3
WAHPETON ARPT  PTCLDY    12   9  85 N7        30.20S WCI   2
$$

 ***** WEATHER ACROSS CENTRAL AND WESTERN NORTH DAKOTA  *****

CITY           SKY/WX    TMP DP  RH WIND       PRES   REMARKS
BISMARCK       MOCLDY    -1  -5  82 CALM      30.19R FOG
MINOT          CLOUDY    10   5  80 SE7       30.12F WCI  -1
JAMESTOWN      CLEAR      3  -1  83 NW5       30.18S WCI  -6
MINOT AFB      CLOUDY    10   8  90 S6        30.12F WCI   0
GARRISON         N/A     12   9  87 CALM      30.12F
WILLISTON      CLOUDY    20  16  84 CALM      30.09F
DICKINSON      MOCLDY    11   6  81 S6        30.08S WCI   1
HETTINGER      CLEAR      5   1  83 S5        30.12F WCI  -4
$$

 *****  OTHER AIRPORT OBSERVATIONS IN OUR AREA  *****

CITY           SKY/WX    TMP DP  RH WIND       PRES   REMARKS
WALHALLA         N/A     -6  -8  92 SW5       30.23S WCI -17
GRAFTON AIRPOR NOT AVBL
VALLEY CITY AR FAIR       1   1 100 NW3       30.19S
CANDO          FAIR      -2  -6  84 CALM      30.17S
CAVALIER APRT  CLOUDY     0  -4  85 W6        30.24S WCI -12
GWINNER        CLEAR      9   3  78 N7        30.20F WCI  -3
ROLLA          FAIR      -4  -9  77 S8        30.12S WCI -19
 ***** THE ABOVE OBSERVATIONS ARE NON NWS ARE NOT QUALITY
       CONTROLLED AND MAY MIS-REPORT RAIN FOR SNOW...
$$

  *****  WEATHER ACROSS NORTHERN MINNESOTA  *****

CITY           SKY/WX    TMP DP  RH WIND       PRES   REMARKS
FLAG ISLAND    CLOUDY    10   5  79 NW8       30.16F WCI  -1
WARROAD        CLOUDY    12   7  79 NW5       30.17F WCI   4
ROSEAU         FLURRIES  12   7  79 NW5       30.18S WCI   4
HALLOCK        FLURRIES   9   5  85 CALM      30.22S
THF RVR FALLS  CLOUDY    10   7  85 NW7       30.19S WCI   0
BAUDETTE       CLOUDY    13   8  81 N7        30.15F WCI   3
WASKISH        FLURRIES  18  10  73 CALM      30.15S
CROOKSTON      FLURRIES  10   7  85 N7        30.23S WCI   0
STEPHEN NDAWN    N/A      9   7  92 NW5         N/A  WCI   0
GREENBUSH NDAW   N/A      9   7  92 W6          N/A  WCI  -1
$$
  *****  WEATHER ACROSS CENTRAL AND WEST MINNESOTA  *****

CITY           SKY/WX    TMP DP  RH WIND       PRES   REMARKS
FOSSTON        LGT SNOW  10   9  92 NW8       30.17S WCI  -1
BEMIDJI        CLOUDY    17  12  79 NW5       30.13S WCI  10
PARK RAPIDS    CLOUDY    21  15  78 N8        30.11S WCI  11
ELBOW LAKE     CLOUDY    19  15  85 N10G17    30.14R WCI   7
WADENA         CLOUDY    19  16  86 N7        30.11S WCI  10
DETROIT LAKES  FLURRIES  14  12  92 NW9       30.15F WCI   2
MOORHEAD       PTCLDY     9   9 100 N6        30.22S WCI  -1
FERGUS FALLS   CLOUDY    16  10  79 N10       30.20R WCI   3
MORRIS MN      CLOUDY    21  18  86 N14       30.13S WCI   8
STAPLES        CLOUDY    21  16  79 N6        30.11S WCI  14
$$
  *****  WEATHER ELSEWHERE ACROSS MINNESOTA  *****

CITY           SKY/WX    TMP DP  RH WIND       PRES   REMARKS
DULUTH         CLOUDY    25  17  72 N6        30.07R WCI  18
INTRNTL FALLS  CLOUDY    16  10  77 NW7       30.14S WCI   6
ELY            FLURRIES  18  16  93 NW5       30.09F WCI  11
CLOQUET        CLOUDY    25  18  74 NW7       30.09S WCI  17
WHEATON        CLOUDY    14  10  85 NW16      30.20S WCI  -2
BRAINERD       CLOUDY    21  15  78 N8        30.12F WCI  11
HIBBING        CLOUDY    22  15  75 N9        30.10S WCI  12
ALEXANDRIA     CLOUDY    23  17  78 N10       30.11R WCI  12
SAINT CLOUD    CLOUDY    27  19  72 N13       30.09F WCI  16
MINNEAPOLIS    LGT SNOW  28  25  88 N12       30.05F FOG     WCI  18
$$

  *****  WEATHER ACROSS SOUTH DAKOTA  *****

CITY           SKY/WX    TMP DP  RH WIND       PRES   REMARKS
SIOUX FALLS    LGT SNOW  22  19  89 N10       30.08S VSB 1   WCI  11
BROOKINGS      NOT AVBL
WATERTOWN      CLOUDY    18  15  88 N15       30.10F WCI   4
HURON          CLOUDY    17  14  88 N16       30.17S WCI   2
SISSETON         N/A     13   9  84 N18       30.17S WCI  -4
ABERDEEN       CLOUDY    12   7  80 N10       30.21R WCI  -1
MITCHELL       LGT SNOW  20  18  92 N15       30.16R VSB 1   WCI   6
PIERRE         CLOUDY    12   8  84 NW3       30.19R
MOBRIDGE       PTCLDY     3   1  91 N5        30.15F WCI  -6
RAPID CITY     PTCLDY     7   6  96 CALM      30.11F
$$

  *****  SOME WEATHER IN NEARBY STATES *****

CITY           SKY/WX    TMP DP  RH WIND       PRES   REMARKS
GLASGOW MT     CLEAR     17  12  80 NW3       30.12S
GREAT FALLS MT CLEAR     12   8  84 S12       30.06S WCI  -2
CHEYENNE WY    LGT SNOW   8   5  87 W6        30.00R FOG     WCI  -2
SCOTTSBLUFF NE LGT SNOW  17  14  88 W7        30.11R FOG     WCI   8
OMAHA NE       LGT SNOW  32  30  92 NW8       30.04R FOG     WCI  25
DES MOINES IA  DRIZZLE   35  32  88 CALM      29.97F FOG
DAVENPORT IA   CLOUDY    43  37  79 E5        29.97S
CHICAGO IL     CLOUDY    46  41  82 S8        30.02R
EAU CLAIRE WI  LGT SNOW  31  28  89 N6        30.01S VSB 1
LA CROSSE WI   CLOUDY    34  32  92 NW8       29.98F FOG
$$

  *****  SOME NATIONAL WEATHER *****

CITY           SKY/WX    TMP DP  RH WIND       PRES   REMARKS
LA GUARDIA NY  PTCLDY    45  29  53 SW8       30.21S
RALEIGH NC     MOCLDY    38  33  82 CALM      30.31F
ATLANTA GA     PTCLDY    45  35  68 CALM      30.28F
NEW ORLEANS LA CLOUDY    65  57  75 SE12      30.14R
OKLAHOMA CITY  MOCLDY    37  30  75 N22G28    30.12R
ALBUQUERQUE NM CLEAR     26  12  55 SE3       30.06R
SALT LAKE CITY MOCLDY    24  18  77 CALM      30.20R
LOS ANGELES CA CLEAR     51  22  31 E9        30.17R
BOISE ID       CLEAR     25  19  78 SW5       30.28R WCI  19
SEATTLE WA     CLOUDY    40  35  83 CALM      30.34S
$$

*** WEATHER ACROSS MANITOBA...SASKATCHEWAN AND ONTARIO ***
                ***ONTARIO***

CITY           SKY/WX    TMP DP  RH WIND       PRES   REMARKS
GERALDTON      CLOUDY    19  16  86 W5        30.07  WCI  13
THUNDER BAY    MOCLDY    27  18  69 N5        30.10  WCI  21
SIOUX LOOKOUT  FLURRIES   3   0  85 W9        30.14  WCI -11
TORONTO        PTCLDY    37  34  87 S3        30.13
BIG TROUT LK   CLEAR    -11 -15  84 W8        30.12S WCI -28
PICKLE LAKE    NOT AVBL
DRYDEN         FLURRIES   3   1  92 W7        30.14S WCI  -9
KENORA         FLURRIES   3   1  92 CALM      30.15S
$$
                *** MANITOBA***

CITY           SKY/WX    TMP DP  RH WIND       PRES   REMARKS
BRANDON        CLEAR    -13 -17  84 W6        30.14F WCI -27
DAUPHIN        CLOUDY    -6 -11  77 W9        30.13F WCI -22
ISLAND LAKE    PTCLDY   -15 -20  76 S3        30.13F
PILOT MOUND      N/A     -9 -13  84 SW3         N/A
THE PAS        CLEAR    -15 -20  76 NW3       30.09S
THOMPSON       PTCLDY   -29 -35  75 CALM      30.06F
WINNIPEG       LGT SNOW   1  -4  78 SW3       30.23F FOG
CHURCHILL      LGT SNOW -11 -17  77 SW6       29.99  WCI -25
GILLAM         CRYSTALS -24 -31  69 SW7       30.05F WCI -42
$$
                ***SASKATCHEWAN***

CITY           SKY/WX    TMP DP  RH WIND       PRES   REMARKS
ESTEVAN        CLOUDY    14  12  92 S5        30.08S WCI   6
KINDERSLEY     PTCLDY     7   3  85 SE3       30.00
LLOYDMINSTER   CLOUDY    10   7  85 SW6       29.96F WCI   1
PRINCE ALBERT  CLOUDY     5   1  85 CALM      30.06S
REGINA         FLURRIES  14  12  92 W8        30.06F WCI   3
YORKTON          N/A      0  -4  85 S7        30.05F WCI -13
N. BATTLEFORD  FLURRIES  12  10  92 W5        30.04F WCI   4
LA RONGE       CLEAR    -18 -24  76 W7        30.10  WCI -35
SASKATOON      FLURRIES  12   9  85 W6        30.06S WCI   3
SWIFT CURRENT  PTCLDY     9   7  92 SW13      30.01S WCI  -7
$$
NOTE: THESE ARE AUTOMATED STATIONS WITH LIMITED QUALITY CONTROL
      "FAIR" INDICATES FEW OR NO CLOUDS BELOW 12,000 FEET WITH NO
      SIGNIFICANT WEATHER AND/OR OBSTRUCTIONS TO VISIBILITY.
      SKY/WX - SKY CONDITION AND SIGNIFICANT WEATHER.
      TMP - AIR TEMPERATURE.    DP   - DEWPOINT TEMPERATURE.
      RH  - RELATIVE HUMIDITY.  PRES - PRESSURE.
      HX  - HEAT INDEX.         WCI  - WIND CHILL INDEX.
$


USA.gov is the U.S. government's official web portal to all federal, state and local government web resources and services.